This demonstration page uses our WeatherBlox Daily Observations layout. Learn more.

Left ArrowRight Arrow

40.92945, -100.16068

Hourly Observations for November 22, 2018

Temp ( °F °C ) Dew Point ( °F °C ) Humidity (%) Winds ( mph kmh ) Pressure ( in mb ) Visibility ( mi km ) Precip ( " mm )
12:15 am 00:15 Clear 31 -0.7 24 -4.5 76 76 Calm 30.18 1022 10 16.0934 0 0
12:35 am 00:35 Clear 32 0 24 -4.7 71 71 Calm 30.18 1022 10 16.0934 0 0
12:55 am 00:55 Clear 30 -1.2 23 -5 76 76 Calm 30.18 1022 10 16.0934 0 0
1:15 am 01:15 Clear 30 -1.1 23 -4.9 76 76 Calm 30.18 1022 10 16.0934 0 0
1:35 am 01:35 Clear 30 -0.9 23 -5 74 74 Calm 30.15 1021 10 16.0934 0 0
1:55 am 01:55 Clear 29 -1.9 23 -5.2 78 78 NE 3 6 30.15 1021 10 16.0934 0 0
2:15 am 02:15 Clear 29 -1.6 23 -5.1 77 77 Calm 30.15 1021 10 16.0934 0 0
2:35 am 02:35 Clear 29 -1.6 23 -5.1 77 77 W 3 6 30.15 1021 10 16.0934 0 0
2:55 am 02:55 Clear 28 -2.4 22 -5.7 78 78 Calm 30.18 1022 10 16.0934 0 0
3:15 am 03:15 Clear 28 -2.5 23 -5.2 82 82 NE 3 6 30.18 1022 10 16.0934 0 0
3:35 am 03:35 Clear 28 -2.5 22 -5.5 80 80 Calm 30.18 1022 10 16.0934 0 0
3:55 am 03:55 Clear 28 -2 23 -5.1 80 80 Calm 30.18 1022 10 16.0934 0 0
4:15 am 04:15 Clear 28 -2.2 23 -5 81 81 Calm 30.18 1022 10 16.0934 0 0
4:35 am 04:35 Clear 28 -2.3 23 -5.2 81 81 Calm 30.18 1022 10 16.0934 0 0
4:55 am 04:55 Clear 28 -2.1 23 -5.1 80 80 Calm 30.18 1022 10 16.0934 0 0
5:15 am 05:15 Clear 28 -2.3 22 -5.5 79 79 Calm 30.18 1022 10 16.0934 0 0
5:35 am 05:35 Clear 27 -3 22 -5.7 82 82 Calm 30.18 1022 10 16.0934 0 0
5:55 am 05:55 Clear 29 -1.9 22 -5.6 76 76 Calm 30.15 1021 10 16.0934 0 0
6:15 am 06:15 Clear 29 -1.4 23 -5.1 76 76 SSW 5 7 30.15 1021 10 16.0934 0 0
6:35 am 06:35 Clear 27 -3 21 -6 80 80 S 3 6 30.18 1022 10 16.0934 0 0
6:55 am 06:55 Clear 28 -2.1 22 -5.4 78 78 S 6 9 30.18 1022 10 16.0934 0 0
7:15 am 07:15 Clear 28 -2.2 23 -5.2 80 80 Calm 30.18 1022 10 16.0934 0 0
7:35 am 07:35 Sunny 28 -2.1 22 -5.4 78 78 SW 3 6 30.18 1022 10 16.0934 0 0
7:55 am 07:55 Sunny 28 -2.2 23 -5.2 80 80 WSW 3 6 30.18 1022 10 16.0934 0 0
8:15 am 08:15 Sunny 27 -2.8 23 -5 85 85 Calm 30.18 1022 10 16.0934 0 0
8:35 am 08:35 Sunny 30 -0.9 26 -3.4 83 83 Calm 30.15 1021 10 16.0934 0 0
8:55 am 08:55 Sunny 33 0.3 28 -2.5 82 82 Calm 30.12 1020 10 16.0934 0 0
9:15 am 09:15 Sunny 37 2.9 29 -1.5 73 73 Calm 30.09 1019 10 16.0934 0 0
9:35 am 09:35 Sunny 42 5.4 30 -1.1 63 63 Calm 30.06 1018 10 16.0934 0 0
9:55 am 09:55 Sunny 42 5.8 30 -1.1 62 62 Calm 30.06 1018 10 16.0934 0 0
10:15 am 10:15 Sunny 45 7.3 31 -0.7 57 57 SE 3 6 30.03 1017 10 16.0934 0 0
10:35 am 10:35 Sunny 48 9 30 -1 50 50 SSE 6 9 30 1016 10 16.0934 0 0
10:55 am 10:55 Sunny 51 10.4 32 0 49 49 SSE 7 11 29.97 1015 10 16.0934 0 0
11:15 am 11:15 Sunny 56 13.5 31 -0.5 38 38 S 14 22 29.94 1014 10 16.0934 0 0
11:35 am 11:35 Sunny 57 14.1 31 -0.3 37 37 S 15 24 29.94 1014 10 16.0934 0 0
11:55 am 11:55 Sunny 58 14.5 32 0 37 37 S 15 24 29.91 1013 10 16.0934 0 0
12:15 pm 12:15 Sunny 59 14.9 32 0 36 36 SSW 17 28 29.88 1012 10 16.0934 0 0
12:35 pm 12:35 Sunny 60 15.6 32 0 35 35 SSW 13 20 29.85 1011 10 16.0934 0 0
12:55 pm 12:55 Sunny 62 16.6 33 0.5 34 34 S 15 24 29.85 1011 10 16.0934 0 0
1:15 pm 13:15 Sunny 61 16.3 32 0.1 33 33 S 18 30 29.83 1010 10 16.0934 0 0
1:35 pm 13:35 Sunny 62 16.8 33 0.5 33 33 S 13 20 29.83 1010 10 16.0934 0 0
1:55 pm 13:55 Sunny 60 15.7 33 0.7 36 36 S 14 22 29.8 1009 10 16.0934 0 0
2:15 pm 14:15 Sunny 63 17 34 1 34 34 SSE 10 17 29.77 1008 10 16.0934 0 0
2:35 pm 14:35 Sunny 62 16.9 35 1.4 35 35 SSE 8 13 29.77 1008 10 16.0934 0 0
2:55 pm 14:55 Sunny 64 17.7 34 1 33 33 S 10 17 29.77 1008 10 16.0934 0 0
3:15 pm 15:15 Sunny 65 18.3 34 1.1 32 32 S 15 24 29.71 1006 10 16.0934 0 0
3:35 pm 15:35 Sunny 65 18.6 34 0.9 31 31 S 17 28 29.71 1006 10 16.0934 0 0
3:55 pm 15:55 Sunny 65 18.1 34 1.1 32 32 S 12 19 29.71 1006 10 16.0934 0 0
4:15 pm 16:15 Sunny 63 17 34 1.1 34 34 S 14 22 29.74 1007 10 16.0934 0 0
4:35 pm 16:35 Sunny 61 15.9 35 1.6 38 38 SSE 9 15 29.71 1006 10 16.0934 0 0
4:55 pm 16:55 Sunny 59 15.1 35 1.6 40 40 SE 8 13 29.71 1006 10 16.0934 0 0
5:15 pm 17:15 Sunny 56 13.1 35 1.5 46 46 ESE 7 11 29.74 1007 10 16.0934 0 0
5:35 pm 17:35 Clear 49 9.4 35 1.5 58 58 ESE 8 13 29.77 1008 10 16.0934 0 0
5:55 pm 17:55 Clear 51 10.5 33 0.8 51 51 SE 8 13 29.77 1008 10 16.0934 0 0
6:15 pm 18:15 Clear 51 10.6 34 0.9 51 51 SSE 12 19 29.71 1006 10 16.0934 0 0
6:35 pm 18:35 Clear 51 10.6 34 1.1 52 52 SSE 12 19 29.71 1006 10 16.0934 0 0
6:55 pm 18:55 Clear 51 10.4 35 1.5 54 54 SSE 13 20 29.74 1007 10 16.0934 0 0
7:15 pm 19:15 Clear 52 11 36 2.4 56 56 SSE 16 26 29.68 1005 10 16.0934 0 0
7:35 pm 19:35 Clear 52 11 37 2.5 56 56 SSE 12 19 29.68 1005 10 16.0934 0 0
7:55 pm 19:55 Clear 50 10 37 2.7 61 61 SSE 10 17 29.71 1006 10 16.0934 0 0
8:15 pm 20:15 Clear 50 10 37 3 62 62 SSE 10 17 29.71 1006 10 16.0934 0 0
8:35 pm 20:35 Clear 52 10.9 39 3.8 62 62 SSE 14 22 29.68 1005 10 16.0934 0 0
8:55 pm 20:55 Clear 51 10.7 39 4.1 64 64 SSE 13 20 29.68 1005 10 16.0934 0 0
9:15 pm 21:15 Clear 51 10.7 40 4.5 66 66 SSE 13 20 29.68 1005 10 16.0934 0 0
9:35 pm 21:35 Clear 51 10.6 40 4.7 67 67 SSE 14 22 29.68 1005 10 16.0934 0 0
9:55 pm 21:55 Clear 50 10.1 40 4.5 68 68 SSE 12 19 29.71 1006 10 16.0934 0 0
10:15 pm 22:15 Clear 49 9.3 40 4.4 72 72 SSE 9 15 29.71 1006 10 16.0934 0 0
10:35 pm 22:35 Clear 48 9.1 40 4.5 73 73 SSE 8 13 29.71 1006 10 16.0934 0 0
10:55 pm 22:55 Clear 48 8.9 40 4.5 74 74 SSE 9 15 29.68 1005 10 16.0934 0 0
11:15 pm 23:15 Clear 48 8.8 40 4.5 75 75 SSE 13 20 29.68 1005 10 16.0934 0 0
11:35 pm 23:35 Clear 48 8.8 40 4.5 75 75 SSE 12 19 29.65 1004 10 16.0934 0 0
11:55 pm 23:55 Partly Cloudy 47 8.5 40 4.5 76 76 S 12 19 29.65 1004 10 16.0934 0 0

Powered by AerisWeather